• Join FlightAware (Why Join?)
  • Login
  • US Flag 
11:38AM EST


 

Airport Tracker/Info


-or-


 

Live Flight TrackerFlight Track Log ✈ DAL5259 ✈ 09-Jul-2013 ✈ KMHT - KLGA

Flight Track Log - Related Links

Times and Time Zones

All times are in EDT time to prevent confusion due to time zone crossing. See the DAL5259 flight status page for this flight to view local times or setup timezone preferences in your user account.

Time Position Orientation Groundspeed Altitude Reporting Facility
EDT Latitude Longitude Course Direction KTS MPH feet Rate Location/Type
10:11AM 42.9500 -71.4167 336° Northwest 153 176 1,200  Level KA90
10:13AM 43.0339 -71.4686 336° Northwest 240 276 4,200 2,353 Climbing Boston Center
10:14AM 43.0681 -71.5533 299° West 248 285 7,200 2,800 Climbing Boston Center
10:15AM 43.0833 -71.6556 282° West 265 305 9,800 2,300 Climbing Boston Center
10:16AM 43.0758 -71.7722 265° West 296 341 11,800 2,000 Climbing Boston Center
10:17AM 43.0703 -71.9000 267° West 332 382 13,800 2,050 Climbing Boston Center
10:18AM 43.0644 -72.0367 267° West 357 411 15,900 2,050 Climbing Boston Center
10:19AM 43.0586 -72.1644 266° West 369 425 17,900 2,000 Climbing Boston Center
10:20AM 43.0547 -72.3122 268° West 363 418 19,900 1,850 Climbing Boston Center
10:21AM 43.0486 -72.4572 267° West 370 426 21,600 1,500 Climbing Boston Center
10:22AM 43.0422 -72.5992 267° West 375 432 22,900 1,100 Climbing Boston Center
10:23AM 43.0272 -72.7581 263° West 402 463 23,800 1,050 Climbing Boston Center
10:24AM 43.0183 -72.9142 266° West 417 480 25,000 1,150 Climbing Boston Center
10:25AM 43.0136 -73.0647 268° West 434 499 26,100 1,150 Climbing Boston Center
10:26AM 43.0042 -73.2236 265° West 439 505 27,300 950 Climbing Boston Center
10:27AM 42.9717 -73.3964 256° West 429 494 28,000 350 Climbing Boston Center
10:28AM 42.8975 -73.5283 233° Southwest 429 494 28,000 -350 Level Boston Center
10:29AM 42.8336 -73.6547 235° Southwest 435 501 27,300 -1,100 Descending Boston Center
10:30AM 42.7281 -73.7825 222° Southwest 462 532 25,800 -1,250 Descending Boston Center
10:31AM 42.6217 -73.7803 179° South 435 501 24,800 -1,700 Descending Boston Center
10:32AM 42.4844 -73.7547 172° South 427 491 22,400 -1,950 Descending Boston Center
10:33AM 42.3556 -73.7325 173° South 444 511 20,900 -1,500 Descending Boston Center
10:34AM 42.2283 -73.7411 183° South 456 525 19,400 -1,400 Descending Boston Center
10:35AM 42.0906 -73.7467 182° South 456 525 18,100 -700 Descending Boston Center
10:36AM 41.9906 -73.7586 185° South 436 502 18,000 -500 Descending Boston Center
10:37AM 41.8967 -73.7650 183° South 388 447 17,100 -1,050 Descending Boston Center
10:38AM 41.8069 -73.7714 183° South 347 399 15,900 -1,300 Descending Boston Center
10:39AM 41.7114 -73.7528 172° South 325 374 14,500 -1,350 Descending Boston Center
10:40AM 41.6239 -73.7314 170° South 325 374 13,200 -1,213 Descending Boston Center
10:40AM 41.5667 -73.7167 169° South 318 366 12,600 -1,200 Descending New York TRACON
10:41AM 41.4833 -73.7000 171° South 310 357 11,300 -1,289 Descending New York TRACON
10:42AM 41.4167 -73.7333 201° Southwest 295 339 10,000 -1,300 Descending New York TRACON
10:43AM 41.3333 -73.7500 189° South 290 334 8,700 -950 Descending New York TRACON
10:44AM 41.2667 -73.7000 151° Southeast 287 330 8,100 -579 Descending New York TRACON
10:45AM 41.2000 -73.6667 159° South 292 336 7,600 -1,105 Descending New York TRACON
10:46AM 41.1333 -73.6500 169° South 278 320 6,000 -1,429 Descending New York TRACON
10:47AM 41.0500 -73.6500 180° South 270 311 4,600 -1,000 Descending New York TRACON
10:48AM 40.9833 -73.7000 210° Southwest 247 284 3,900 -789 Descending New York TRACON
10:49AM 40.9333 -73.7500 217° Southwest 245 282 3,100 -737 Descending New York TRACON
10:50AM 40.8833 -73.7833 207° Southwest 167 192 2,500 -714 Descending New York TRACON
10:51AM 40.8500 -73.8167 217° Southwest 144 166 1,600 -750 Descending New York TRACON
10:52AM 40.8333 -73.8333 217° Southwest 138 159 1,000 -650 Descending New York TRACON
10:53AM 40.7833 -73.8667 207° Southwest 136 157 300 -636 Descending New York TRACON
10:55AM 40.7772 -73.8726 180° South  Level Estimated
11:02AM 40.7772 -73.8726 180° South  Level Estimated
11:03AM 40.7772 -73.8726 180° South  Level Estimated